EDT,Max TemperatureF,Mean TemperatureF,Min TemperatureF,Max Dew PointF,MeanDew PointF,Min DewpointF,Max Humidity, Mean Humidity, Min Humidity, Max Sea Level PressureIn, Mean Sea Level PressureIn, Min Sea Level PressureIn, Max VisibilityMiles, Mean VisibilityMiles, Min VisibilityMiles, Max Wind SpeedMPH, Mean Wind SpeedMPH, Max Gust SpeedMPH,PrecipitationIn, CloudCover, Events, WindDirDegrees
2013-7-1,78,70,64,68,65,63,100,91,65,30.13,30.03,29.95,10,4,0,8,1,,0.77,8,Fog-Rain,340
2013-7-2,64,62,60,64,62,59,100,95,84,30.22,30.16,30.10,10,4,1,7,3,,1.01,8,Rain,340
2013-7-3,86,72,59,72,63,57,100,86,61,30.21,30.18,30.13,10,7,2,10,1,,0.01,6,Rain,68
2013-7-4,89,76,64,73,67,63,100,92,51,30.22,30.16,30.10,10,3,0,7,0,,0.10,4,Fog-Rain-Thunderstorm,255
2013-7-5,88,74,60,73,66,60,100,91,55,30.15,30.11,30.05,10,4,0,8,1,16,0.08,5,Fog-Rain,296
2013-7-6,82,72,62,70,65,60,100,89,50,30.09,30.06,30.00,10,4,0,10,1,20,0.01,5,Fog,293
2013-7-7,84,70,59,67,63,58,97,77,52,30.03,29.99,29.95,10,9,7,9,2,17,0.01,3,Rain,322
2013-7-8,78,70,64,70,66,63,100,91,76,30.09,30.02,29.96,10,8,2,9,1,,0.46,7,Rain,144
2013-7-9,79,72,64,69,65,63,100,88,65,30.13,30.10,30.06,10,8,1,12,2,,0.21,7,Rain,155
2013-7-10,75,66,60,67,64,60,100,89,73,30.07,29.93,29.79,10,8,2,13,3,23,0.27,6,Rain,146
2013-7-11,79,66,55,67,62,53,100,87,50,30.04,29.84,29.76,10,6,0,12,2,25,0.20,5,Fog-Rain,333
2013-7-12,82,66,51,62,54,48,100,80,29,30.24,30.14,30.05,10,6,0,5,0,,0.01,2,Fog,315
2013-7-13,82,66,51,67,57,52,100,85,43,30.34,30.31,30.26,10,6,0,5,0,,0.00,5,Fog,163
2013-7-14,88,74,59,68,64,58,97,76,46,30.33,30.29,30.23,10,10,9,8,1,,0.00,3,,319
2013-7-15,90,73,57,69,61,57,100,85,45,30.26,30.22,30.14,10,5,0,8,1,,0.00,3,Fog,320
2013-7-16,90,74,59,68,62,57,97,74,43,30.22,30.19,30.17,10,8,2,12,1,17,0.00,1,,321
2013-7-17,91,73,55,72,64,55,100,84,45,30.23,30.13,29.99,10,7,0,20,1,40,0.33,3,Fog-Rain-Thunderstorm,63
2013-7-18,86,74,64,73,68,63,100,89,56,30.06,30.01,29.95,10,5,0,7,1,,0.31,5,Fog-Rain-Thunderstorm,342
2013-7-19,90,78,66,72,68,66,100,88,52,29.95,29.85,29.65,10,5,0,12,1,22,0.01,5,Fog,233
2013-7-20,90,72,59,68,65,57,100,79,58,29.83,29.70,29.62,10,8,0,18,3,31,0.33,4,Fog-Rain-Thunderstorm,246
2013-7-21,78,66,52,57,54,51,97,72,42,30.06,29.97,29.85,10,10,10,10,2,,0.00,2,,327
2013-7-22,77,62,48,64,54,48,100,89,54,30.08,30.03,29.92,10,5,0,8,1,,0.00,4,Fog,173
2013-7-23,73,68,62,68,64,61,100,94,76,29.90,29.68,29.57,10,5,0,6,1,,0.60,7,Fog-Rain,346
2013-7-24,70,62,55,65,58,47,100,88,56,30.05,29.71,29.59,10,5,0,10,2,18,0.22,7,Fog-Rain-Thunderstorm,8
2013-7-25,73,62,52,58,51,45,93,69,49,30.15,30.11,30.06,10,10,10,6,1,,0.00,3,,321
2013-7-26,73,64,57,63,59,56,97,85,63,30.13,30.05,29.99,10,10,2,7,1,,0.09,7,Rain,22
2013-7-27,82,68,55,65,59,54,100,79,45,30.07,30.03,29.99,10,10,5,5,1,,0.00,3,,302
2013-7-28,79,66,53,65,58,54,100,90,58,30.05,30.03,30.00,10,5,0,14,2,24,0.02,4,Fog-Rain,158
2013-7-29,80,69,60,69,63,59,100,89,62,30.08,30.03,29.97,10,7,0,14,2,23,0.24,5,Fog-Rain-Thunderstorm,17
2013-7-30,75,65,51,61,57,50,100,89,46,30.12,30.09,30.06,10,4,0,8,1,16,0.00,5,Fog,293
2013-7-31,80,62,45,62,50,44,100,85,40,30.17,30.12,30.05,10,6,0,5,2,,0.00,3,Fog,310